www.pogodaiklimat.ru
ПОГОДА в Ковингтоне
Время
и дата
08:35 22.04
08:55 22.04
09:15 22.04
09:35 22.04
10:00 22.04
10:15 22.04
10:35 22.04
10:55 22.04
11:15 22.04
11:35 22.04
11:55 22.04
12:15 22.04
12:35 22.04
12:55 22.04
13:15 22.04
13:35 22.04
13:55 22.04
14:15 22.04
14:35 22.04
14:55 22.04
15:15 22.04
15:35 22.04
15:55 22.04
16:15 22.04
16:35 22.04
16:55 22.04
17:15 22.04
17:35 22.04
17:55 22.04
18:15 22.04
18:35 22.04
18:55 22.04
19:15 22.04
19:35 22.04
19:55 22.04
20:15 22.04
20:35 22.04
20:55 22.04
21:15 22.04
21:35 22.04
21:55 22.04
22:15 22.04
22:35 22.04
22:55 22.04
23:15 22.04
23:35 22.04
23:55 22.04
00:15 23.04
Ветер
(напр.,м/с)
Видим. Явления Облачность Т
(С)
Тd
(С)
f
(%)
Тe
(С)
Тes
(С)
Комфортность P
(гПа)
Po
(гПа)
Тmin
(С)
Tmax
(С)
R
(мм)
R24
(мм)
S
(см)
СВ 1 16 км ясно +8.0 -3.0 46 +6 +9 994.5
СВ 1 16 км ясно +9.0 -5.0 37 +7 +10 994.9
СВ 2 16 км ясно +10.0 -5.0 34 +8 +13 995.2
СВ 1 16 км ясно +11.0 -5.0 32 +10 +16 995.2
СВ 1 16 км ясно +11.0 -6.0 30 +10 +20 опасность
простуды
995.2
В 1 16 км ясно +11.0 -5.0 32 +10 +23 опасность
простуды
994.9
С 1 16 км ясно +12.0 -5.0 30 +11 +22 опасность
простуды
995.2
С 1 16 км ясно +12.0 -5.0 30 +11 +22 опасность
простуды
995.2
СЗ 2 16 км ясно +12.0 -6.0 28 +11 +22 опасность
простуды
994.9
С 1 16 км ясно +13.0 -5.0 28 +12 +26 опасность
простуды
994.2
СЗ 1 16 км ясно +13.0 -5.0 28 +12 +26 опасность
простуды
994.2
СВ 1 16 км ясно +13.0 -5.0 28 +12 +28 опасность
простуды
993.9
С 1 16 км ясно +14.0 -4.0 28 +13 +29 опасность
простуды
993.9
СЗ 1 16 км ясно +13.0 -4.0 30 +12 +28 опасность
простуды
993.2
С 1 16 км ясно +15.0 -3.0 29 +15 +31 опасность
простуды
993.2
СЗ 1 16 км ясно +15.0 -4.0 27 +15 +34 опасность
простуды
992.9
СЗ 2 16 км ясно +15.0 -3.0 29 +14 +27 опасность
простуды
992.9
З 2 16 км ясно +16.0 -3.0 27 +15 +24 992.6
СЗ 2 16 км ясно +16.0 -3.0 27 +15 +27 опасность
простуды
992.2
СЗ 2 16 км ясно +16.0 -3.0 27 +15 +24 991.9
СЗ 3 16 км ясно +16.0 -2.0 29 +15 +20 991.9
СЗ 2
{4}
16 км ясно +16.0 -3.0 27 +15 +25 991.6
З 2 16 км ясно +16.0 -3.0 27 +15 +25 991.6
СЗ 2 16 км ясно +16.0 -3.0 27 +15 +21 991.3
З 1
{4}
16 км ясно +16.0 -2.0 29 +16 +23 991.3
З 2 16 км ясно +16.0 -3.0 27 +15 +21 991.3
СЗ 2
{4}
16 км ясно +16.0 -2.0 29 +15 +18 991.3
СЗ 2 16 км ясно +16.0 -3.0 27 +15 +18 990.9
СЗ 1 16 км ясно +16.0 -2.0 29 +16 +20 990.9
З 1 16 км ясно +15.0 -2.0 31 +15 +16 990.9
СЗ 1 16 км ясно +15.0 -2.0 31 +15 +16 990.9
С 1 16 км ясно +13.0 -1.0 38 +13 +14 990.9
штиль 0 16 км ясно +12.0 0.0 44 +12 +12 990.9
штиль 0 16 км ясно +11.0 0.0 47 +11 +11 990.9
штиль 0 16 км ясно +10.0 +1.0 54 +10 +10 991.3
штиль 0 16 км ясно +8.0 +1.0 61 +8 +8 991.6
штиль 0 16 км ясно +8.0 +1.0 61 +8 +8 991.6
штиль 0 16 км ясно +8.0 +1.0 61 +8 +8 991.6
штиль 0 16 км ясно +7.0 +1.0 66 +6 +6 992.2
штиль 0 16 км ясно +6.0 +2.0 75 +5 +5 992.6
штиль 0 16 км ясно +6.0 +1.0 70 +5 +5 992.6
штиль 0 16 км ясно +7.0 +1.0 66 +6 +6 992.2
штиль 0 16 км ясно +6.0 +2.0 75 +5 +5 992.2
штиль 0 16 км ясно +6.0 +2.0 75 +5 +5 992.2
штиль 0 16 км ясно +6.0 +2.0 75 +5 +5 992.2
штиль 0 16 км ясно +6.0 +1.0 70 +5 +5 992.6
штиль 0 16 км ясно +6.0 +1.0 70 +5 +5 992.6
штиль 0 16 км ясно +5.0 +2.0 81 +4 +4 992.2
Местоположение метеостанции Covington Municipal Airport: широта 33.6320 долгота -83.8500 высота над уровнем моря 242 м.
В архиве по умолчанию представлена погода в Ковингтоне за последние 1-2 суток. Обновление информации о фактической погоде в базе происходит ежечасно! Архивные данные за месяц целиком и за предыдущие месяцы Вы можете получить, выбрав интересующий диапазон дат из раскрывающегося списка и нажав кнопку "Ввод!".
Внимание! Архив погоды МЕТАР в базе сайта по станциям, не включенным в климатический монитор, хранится не более 60 дней. Нет смысла пытаться выбрать более раннюю дату.
*Определитесь, кто Вы:
Внимание! Время в таблицах - местное (без учета летнего времени). Для получения всемирного времени необходимо вычесть поправку, которая равна -5 ч.
Смотрите также архив погоды в соседних городах и на ближайших метеорологических станциях:
Партнеры нашего сайта:      
Пояснения к столбцам:
  • Ветер - указаны скорость ветра в м/с - средняя за 10 мин, порывы в срок и между сроками (в фигурных скобках) и направление, откуда дует ветер: С - северный,
  • СВ - северо-восточный, В - восточный, ЮВ - юго-восточный, Ю - южный, ЮЗ - юго-западный, З - западный, СЗ - северо-западный.
  • Видимость - горизонтальная дальность видимости в метрах или километрах. При видимости от 1 до 10 км при отсутствии осадков обычно наблюдается дымка, при ухудшении видимости до 1 км и менее - туман. В сухую погоду видимость может ухудшаться дымом, пылью или мглою.
  • Явления - указаны атмосферные явления, наблюдавшиеся в срок или в последний час перед сроком; фигурными скобками обозначены явления, наблюдавшиеся между сроками (за 1-3 часа до срока); квадратными скобками обозначены град или гололедные отложения с указанием их диаметра в мм.
  • Облачность - указаны через наклонную черту общая и нижняя облачность в баллах и высота нижней границы облаков в метрах; квадратными скобками обозначены формы облаков: Ci - перистые, Cs - перисто-слоистые, Cc - перисто-кучевые, Ac - высококучевые, As - высокослоистые, Sc - слоисто-кучевые, Ns - слоисто-дождевые, Cu - кучевые, Cb - кучево-дождевые. Подробнее классификацию облаков см. в Атласе облаков (PDF).
  • T - Температура воздуха - температура, измеренная на высоте 2 м над землей.
  • Td - Температура точки росы - температура, при понижении до которой содержащийся в воздухе водяной пар достигнет насыщения.
  • f - Относительная влажность воздуха - влажноcть воздуха, измеренная на высоте 2 м над землей.
  • Te - Эффективная температура - температура, которую ощущает одетый по сезону человек в тени. Характеристика душности погоды. При расчете учитывается влияние влажности воздуха и скорости ветра на теплоощущения человека.
  • Tes - Эффективная температура на солнце - температура, которую ощущает человек, с поправкой на солнечный нагрев. Характеристика знойности погоды. Зависит от высоты солнца над горизонтом, облачности и скорости ветра. Ночью, в пасмурную погоду, а также при ветре 12 м/с и более поправка равна нулю.
  • P - Атмосферное давление - приведенное к уровню моря атмосферное давление.
  • Po - Атмосферное давление - измеренное на уровне метеостанции атмосферное давление.
  • Tmin - Минимальная температура - минимум температуры воздуха на высоте 2 м над землей.
  • Tmax - Максимальная температура - максимум температуры воздуха на высоте 2 м над землей.
  • R - Количество осадков - Количество выпавших осадков за период времени, мм. При наведении курсора мыши на число - период времени, за который выпало указанное количество осадков.
  • R24 - Количество осадков - Количество выпавших осадков за 24 часа, мм.
  • S - Снежный покров - Высота снежного покрова, см. При наведении курсора мыши на число - состояние снежного покрова и степень покрытия местности в баллах.